EW5697 Weather Reports


Display with metric or nautical units.
time (UTC)temp
F
wind
direction
speed
MPH
gust
MPH
rain 1hr
in
rain 24hr
in
rain mn
in
humidity
%
barometer
mb
20260505221534 78 66 0.0 0.0 0.00 0.03 0.01 30 1015.9
20260505220033 78 320 0.0 0.0 0.00 0.03 0.01 31 1016.0
20260505214530 77 71 0.0 0.0 0.00 0.03 0.01 30 1016.2
20260505213028 77 314 0.0 0.0 0.00 0.03 0.01 33 1016.3
20260505211528 77 3 0.0 0.0 0.00 0.03 0.01 33 1016.4
20260505210024 76 70 0.0 0.0 0.00 0.03 0.01 35 1016.7
20260505204520 74 327 0.0 0.0 0.00 0.03 0.01 37 1016.7
20260505203020 73 3 0.0 0.0 0.00 0.03 0.01 39 1016.7
20260505201614 72 58 0.0 0.0 0.00 0.03 0.01 36 1016.9
20260505200012 72 353 0.0 0.0 0.00 0.03 0.01 39 1017.0
20260505194508 70 297 0.0 0.0 0.00 0.03 0.01 47 1017.1
20260505193004 68 20 0.0 0.0 0.00 0.03 0.01 46 1017.3
20260505191627 67 9 0.0 0.0 0.00 0.03 0.01 50 1017.3
20260505190058 66 270 0.0 0.0 0.00 0.03 0.01 51 1017.5
20260505184553 64 49 0.0 0.0 0.00 0.03 0.01 53 1017.6
20260505183049 63 50 0.0 0.0 0.00 0.03 0.01 57 1017.6
20260505181544 61 65 0.0 0.0 0.00 0.03 0.01 60 1017.6
20260505180058 61 32 0.0 0.0 0.00 0.03 0.01 69 1017.6
20260505174546 59 335 0.0 0.0 0.00 0.03 0.01 74 1017.5
20260505173034 58 315 0.0 0.0 0.00 0.03 0.01 74 1017.5
20260505171532 57 40 0.0 0.0 0.00 0.03 0.01 81 1017.5
20260505170025 56 48 0.0 0.0 0.00 0.03 0.01 84 1017.6
20260505164522 55 299 0.0 0.0 0.00 0.03 0.01 86 1017.6
20260505163017 53 341 0.0 0.0 0.00 0.03 0.01 89 1017.6
20260505161512 51 24 0.0 0.0 0.00 0.03 0.01 93 1017.7
20260505153005 48 184 0.0 0.0 0.01 0.03 0.01 94 1017.7
20260505151559 47 143 0.0 0.0 0.01 0.03 0.01 94 1017.6
20260505124541 42 143 0.0 0.0 0.00 0.02 0.00 92 1016.5
20260505123040 43 143 0.0 0.0 0.00 0.02 0.00 92 1016.3
20260505121539 43 143 0.0 0.0 0.00 0.02 0.00 92 1016.3
20260505120035 44 143 0.0 0.0 0.00 0.02 0.00 92 1016.2
20260505114533 44 143 0.0 0.0 0.00 0.02 0.00 92 1016.1
20260505113031 45 143 0.0 0.0 0.00 0.02 0.00 92 1016.1
20260505111530 45 143 0.0 0.0 0.00 0.02 0.00 92 1016.1
20260505101543 46 143 0.0 0.0 0.00 0.02 0.00 92 1015.9
20260505100049 46 143 0.0 0.0 0.00 0.02 0.00 92 1015.7
20260505094526 46 142 0.0 0.0 0.00 0.02 0.00 92 1015.8
20260505093023 46 142 0.0 0.0 0.00 0.02 0.00 92 1015.8
20260505091520 46 142 0.0 0.0 0.00 0.02 0.00 91 1015.6
20260505090017 46 142 0.0 0.0 0.00 0.02 0.00 91 1015.5
20260505084516 47 142 0.0 0.0 0.00 0.02 0.00 91 1015.6
20260505083014 47 142 0.0 0.0 0.00 0.02 0.00 91 1015.6
20260505081513 47 143 0.0 0.0 0.00 0.02 0.00 91 1015.7
20260505080012 48 192 0.0 0.0 0.00 0.02 0.00 91 1015.7
20260505074510 48 151 0.0 0.0 0.00 0.03 0.00 91 1015.6
20260505073027 48 183 0.0 0.0 0.00 0.03 0.00 91 1015.7
20260505071507 48 182 0.0 0.0 0.00 0.03 0.00 91 1015.6
20260505070003 49 180 0.0 0.0 0.00 0.03 0.00 91 1015.5
20260505064501 49 133 0.0 0.0 0.00 0.03 0.03 91 1015.4
20260505063001 49 160 0.0 0.0 0.00 0.03 0.03 91 1015.5
20260505061601 49 162 0.0 0.0 0.00 0.03 0.03 91 1015.4
20260505060103 49 160 0.0 0.0 0.00 0.03 0.03 91 1015.2
20260505054559 49 160 0.0 0.0 0.00 0.03 0.03 90 1015.1
20260505053059 49 160 0.0 0.0 0.00 0.03 0.03 90 1015.1
20260505051558 49 195 0.0 0.0 0.00 0.03 0.03 91 1015.1
20260505041556 50 220 0.0 0.0 0.00 0.03 0.03 90 1014.5
20260505040056 50 162 0.0 0.0 0.00 0.03 0.03 89 1014.2
20260505034555 51 188 0.0 0.0 0.00 0.03 0.03 89 1013.8
20260505033054 51 169 0.0 2.0 0.00 0.03 0.03 87 1013.5
20260505031555 52 166 0.0 0.0 0.00 0.03 0.03 86 1013.3
20260505030054 52 193 0.0 3.0 0.00 0.03 0.03 86 1013.2
20260505024554 52 164 0.0 0.0 0.00 0.03 0.03 85 1013.0
20260505023055 53 151 0.0 0.0 0.00 0.03 0.03 84 1012.9
20260505021553 54 193 0.0 0.0 0.00 0.03 0.03 83 1012.8
20260505020054 54 179 0.0 0.0 0.00 0.03 0.03 82 1012.9
20260505014556 55 144 0.0 1.0 0.00 0.03 0.03 80 1013.0
20260505013053 57 197 0.0 0.0 0.00 0.03 0.03 78 1013.3
20260505011650 57 141 0.0 5.0 0.00 0.03 0.03 77 1012.9
20260505010109 58 183 0.0 1.0 0.00 0.03 0.03 78 1013.0
20260505004549 58 153 0.0 0.0 0.00 0.04 0.03 77 1013.0
20260505003053 59 133 0.0 1.0 0.00 0.04 0.03 76 1012.9
20260505001548 58 138 0.0 0.0 0.00 0.04 0.03 80 1012.8
20260505000049 57 119 0.0 4.0 0.00 0.04 0.03 82 1012.6
20260504234547 55 173 0.0 1.0 0.00 0.04 0.03 85 1012.3
20260504233046 55 124 0.0 6.0 0.02 0.04 0.03 82 1012.7
20260504231547 57 118 0.0 1.0 0.02 0.04 0.03 80 1012.5
20260504230048 58 195 0.0 0.0 0.02 0.04 0.03 77 1012.4
20260504224543 61 193 0.0 10.0 0.02 0.04 0.03 70 1012.7
20260504223054 65 202 0.0 1.0 0.00 0.02 0.01 60 1012.7